Change the Weather History Date:

Tuesday, October 1, 2013

  Actual Average (KHCD) Record (KHCD)
Temperature  
Mean Temperature 62 °F -  
Max Temperature 75 °F 69 °F 89 °F (1963)
Min Temperature 46 °F 44 °F 26 °F (1961)
Degree Days  
Heating Degree Days 4    
Growing Degree Days 12 (Base 50)    
Moisture  
Dew Point 38 °F    
Average Humidity 41    
Maximum Humidity 64    
Minimum Humidity 13    
Precipitation  
Precipitation 0.00 in - - ()
Sea Level Pressure  
Sea Level Pressure 29.81 in    
Wind  
Wind Speed 10 mph (WSW)    
Max Wind Speed 17 mph    
Max Gust Speed 26 mph    
Visibility 10 miles    
Events      
Averages and records for this station are not official NWS values.
T = Trace of Precipitation, MM = Missing Value Source: NWS Daily Summary

Daily Weather History Graph

Daily Weather History Graph

Search for Another Location

Airport or City:

Trip Planner

Search our weather history database for the weather conditions in past years. The results will help you decide how hot, cold, wet, or windy it might be!

Date:

Astronomy

Oct. 01, 2013 Rise Set
Actual Time 7:14 AM CDT 6:56 PM CDT
Civil Twilight 6:45 AM CDT 7:25 PM CDT
Nautical Twilight 6:11 AM CDT 7:59 PM CDT
Astronomical Twilight 5:37 AM CDT 8:33 PM CDT
Moon 3:42 AM CDT (10/1) 5:06 PM CDT (10/1)
Length of Visible Light 12h 40m
Length of Day
11h 41m
Waning Crescent, 12% of the Moon is Illuminated
Oct 1
Waning Crescent
Oct 4
New
Oct 11
First Quarter
Oct 18
Full
Oct 26
Last Quarter

Hourly Weather History & Observations

Time (CDT) Temp. Dew Point Humidity Pressure Visibility Wind Dir Wind Speed Gust Speed Precip Events Conditions
12:13 AM 65.7 °F 49.1 °F 55% 29.61 in 10.0 mi South 8.1 mph - N/A   Clear
12:32 AM 65.5 °F 49.3 °F 56% 29.60 in 10.0 mi South 9.2 mph - N/A   Clear
12:53 AM 65.3 °F 49.5 °F 57% 29.60 in 10.0 mi South 9.2 mph - N/A   Clear
1:13 AM 65.7 °F 49.5 °F 56% 29.60 in 10.0 mi SSE 6.9 mph - N/A   Clear
1:33 AM 66.2 °F 49.3 °F 54% 29.59 in 10.0 mi South 8.1 mph - N/A   Clear
1:53 AM 66.6 °F 49.5 °F 54% 29.59 in 10.0 mi South 10.4 mph 16.1 mph N/A   Clear
2:13 AM 66.7 °F 49.5 °F 54% 29.59 in 10.0 mi South 10.4 mph 17.3 mph N/A   Clear
2:33 AM 66.7 °F 49.3 °F 53% 29.59 in 10.0 mi South 9.2 mph 17.3 mph N/A   Clear
2:52 AM 66.6 °F 49.3 °F 54% 29.59 in 10.0 mi South 10.4 mph 18.4 mph N/A   Clear
3:12 AM 66.2 °F 49.3 °F 54% 29.60 in 10.0 mi SSW 9.2 mph - N/A   Clear
3:33 AM 65.3 °F 49.5 °F 57% 29.59 in 10.0 mi South 9.2 mph - N/A   Clear
3:52 AM 64.8 °F 49.8 °F 58% 29.60 in 10.0 mi SSW 8.1 mph - N/A   Clear
4:13 AM 64.6 °F 50.0 °F 59% 29.60 in 10.0 mi SSW 8.1 mph - N/A   Clear
4:32 AM 64.8 °F 50.2 °F 59% 29.61 in 10.0 mi SSW 8.1 mph - N/A   Clear
4:53 AM 65.3 °F 50.4 °F 58% 29.62 in 10.0 mi SSW 8.1 mph - N/A   Clear
5:13 AM 66.2 °F 50.4 °F 57% 29.63 in 10.0 mi WSW 9.2 mph - N/A   Clear
5:33 AM 66.6 °F 49.8 °F 55% 29.64 in 10.0 mi WSW 8.1 mph - N/A   Clear
5:53 AM 65.8 °F 49.6 °F 56% 29.66 in 10.0 mi West 13.8 mph 19.6 mph N/A   Clear
6:13 AM 65.3 °F 49.5 °F 57% 29.68 in 10.0 mi West 13.8 mph 18.4 mph N/A   Clear
6:32 AM 64.2 °F 49.5 °F 59% 29.69 in 10.0 mi West 9.2 mph - N/A   Clear
6:53 AM 63.0 °F 49.6 °F 62% 29.72 in 10.0 mi West 13.8 mph - N/A   Clear
7:12 AM 61.9 °F 49.3 °F 63% 29.73 in 10.0 mi West 13.8 mph - N/A   Clear
7:32 AM 61.3 °F 49.1 °F 64% 29.75 in 10.0 mi West 11.5 mph - N/A   Clear
7:53 AM 61.3 °F 47.8 °F 61% 29.77 in 10.0 mi West 12.7 mph 18.4 mph N/A   Clear
8:13 AM 61.3 °F 46.8 °F 59% 29.79 in 10.0 mi West 12.7 mph - N/A   Clear
8:32 AM 61.7 °F 46.4 °F 57% 29.80 in 10.0 mi West 12.7 mph 16.1 mph N/A   Clear
8:53 AM 62.6 °F 46.8 °F 56% 29.82 in 10.0 mi West 10.4 mph 18.4 mph N/A   Clear
9:12 AM 63.3 °F 47.1 °F 56% 29.83 in 10.0 mi West 12.7 mph - N/A   Clear
9:33 AM 64.0 °F 46.0 °F 52% 29.83 in 10.0 mi WNW 13.8 mph 21.9 mph N/A   Clear
9:53 AM 64.8 °F 43.7 °F 46% 29.84 in 10.0 mi WNW 15.0 mph 20.7 mph N/A   Clear
10:13 AM 66.2 °F 43.0 °F 43% 29.85 in 10.0 mi WNW 16.1 mph - N/A   Clear
10:33 AM 67.5 °F 41.4 °F 39% 29.85 in 10.0 mi WNW 13.8 mph - N/A   Clear
10:53 AM 69.1 °F 37.6 °F 32% 29.85 in 10.0 mi WNW 17.3 mph 20.7 mph N/A   Clear
11:12 AM 70.0 °F 37.0 °F 30% 29.86 in 10.0 mi WNW 13.8 mph - N/A   Clear
11:32 AM 70.9 °F 32.5 °F 24% 29.86 in 10.0 mi WNW 17.3 mph 21.9 mph N/A   Clear
11:53 AM 71.8 °F 32.9 °F 24% 29.87 in 10.0 mi West 12.7 mph 18.4 mph N/A   Clear
12:12 PM 72.5 °F 29.7 °F 21% 29.87 in 10.0 mi WNW 16.1 mph 25.3 mph N/A   Clear
12:32 PM 73.4 °F 28.2 °F 19% 29.87 in 10.0 mi West 17.3 mph 23.0 mph N/A   Clear
12:53 PM 74.1 °F 25.9 °F 17% 29.88 in 10.0 mi WNW 15.0 mph 24.2 mph N/A   Clear
1:12 PM 74.3 °F 27.1 °F 17% 29.88 in 10.0 mi WNW 15.0 mph 24.2 mph N/A   Clear
1:32 PM 75.0 °F 25.9 °F 16% 29.89 in 10.0 mi WNW 15.0 mph 25.3 mph N/A   Clear
1:53 PM 74.7 °F 25.3 °F 16% 29.88 in 10.0 mi West 17.3 mph 26.5 mph N/A   Clear
2:13 PM 74.5 °F 25.5 °F 16% 29.89 in 10.0 mi West 17.3 mph 21.9 mph N/A   Clear
2:33 PM 74.8 °F 25.3 °F 16% 29.89 in 10.0 mi West 17.3 mph 21.9 mph N/A   Clear
2:53 PM 75.2 °F 26.6 °F 17% 29.90 in 10.0 mi West 13.8 mph 19.6 mph N/A   Clear
3:13 PM 75.6 °F 27.0 °F 17% 29.89 in 10.0 mi West 11.5 mph 19.6 mph N/A   Clear
3:32 PM 75.0 °F 22.5 °F 14% 29.90 in 10.0 mi West 10.4 mph 23.0 mph N/A   Clear
3:53 PM 75.6 °F 23.5 °F 14% 29.90 in 10.0 mi West 11.5 mph 23.0 mph N/A   Clear
4:12 PM 75.6 °F 21.6 °F 13% 29.90 in 10.0 mi West 16.1 mph 23.0 mph N/A   Clear
4:32 PM 75.6 °F 22.6 °F 14% 29.90 in 10.0 mi West 13.8 mph 20.7 mph N/A   Clear
4:53 PM 75.2 °F 21.9 °F 14% 29.90 in 10.0 mi West 12.7 mph 19.6 mph N/A   Clear
5:13 PM 75.0 °F 22.3 °F 14% 29.90 in 10.0 mi West 8.1 mph 19.6 mph N/A   Clear
5:32 PM 74.8 °F 21.6 °F 14% 29.91 in 10.0 mi West 11.5 mph - N/A   Clear
5:53 PM 73.8 °F 20.8 °F 14% 29.91 in 10.0 mi West 10.4 mph - N/A   Clear
6:13 PM 72.5 °F 23.9 °F 16% 29.91 in 10.0 mi West 9.2 mph - N/A   Clear
6:32 PM 70.7 °F 25.0 °F 18% 29.91 in 10.0 mi West 6.9 mph - N/A   Clear
6:53 PM 68.7 °F 26.4 °F 20% 29.92 in 10.0 mi West 3.5 mph - N/A   Clear
7:12 PM 64.4 °F 29.3 °F 27% 29.92 in 10.0 mi Calm Calm - N/A   Clear
7:33 PM 62.4 °F 30.0 °F 30% 29.92 in 10.0 mi WSW 3.5 mph - N/A   Clear
7:53 PM 60.3 °F 32.2 °F 35% 29.93 in 10.0 mi Calm Calm - N/A   Clear
8:12 PM 58.8 °F 32.5 °F 37% 29.94 in 10.0 mi Calm Calm - N/A   Clear
8:33 PM 56.5 °F 35.6 °F 46% 29.95 in 10.0 mi Calm Calm - N/A   Clear
8:53 PM 56.3 °F 34.3 °F 44% 29.95 in 10.0 mi Calm Calm - N/A   Clear
9:12 PM 53.4 °F 35.1 °F 50% 29.95 in 10.0 mi Calm Calm - N/A   Clear
9:32 PM 52.2 °F 36.1 °F 54% 29.96 in 10.0 mi SW 3.5 mph - N/A   Clear
9:53 PM 52.7 °F 35.8 °F 53% 29.96 in 10.0 mi Calm Calm - N/A   Clear
10:12 PM 52.0 °F 36.3 °F 55% 29.97 in 10.0 mi Calm Calm - N/A   Clear
10:33 PM 50.9 °F 35.8 °F 56% 29.97 in 10.0 mi Calm Calm - N/A   Clear
10:53 PM 50.4 °F 35.8 °F 57% 29.98 in 10.0 mi Calm Calm - N/A   Clear
11:12 PM 49.5 °F 34.9 °F 57% 29.98 in 10.0 mi Calm Calm - N/A   Clear
11:32 PM 48.7 °F 34.5 °F 58% 29.99 in 10.0 mi SW 3.5 mph - N/A   Clear
11:53 PM 46.9 °F 34.9 °F 63% 30.00 in 10.0 mi Calm Calm - N/A   Clear